Location: Unspecified
(50.7693°N, 0.0000°E)
Time: 07:40:25
(UTC+00:00)

Transit 2A - Pass Details

Date: 15 August 2020
Orbit: 591 x 967 km, 66.7° (Epoch: 20 September)

Event Time Altitude Azimuth Distance (km) Brightness Sun altitude
Rises 21:21:52 0° 265° (W) 3,524 10.0 -16.4°
Reaches altitude 10° 21:24:45 10° 278° (W) 2,630 9.5 -16.7°
Maximum altitude 21:29:56 27° 334° (NNW) 1,755 8.6 -17.3°
Drops below altitude 10° 21:35:17 10° 31° (NNE) 2,717 9.1 -17.8°
Sets 21:38:20 0° 43° (NE) 3,662 9.6 -18.1°
